STARLINK-11256 [DTC]

Last updated on Tue Oct 01 2024 00:02:04 GMT+0000 (Coordinated Universal Time)

1 60904U 24154B 24274.10240143 .00037731 00000+0 23316-3 0 9997 2 60904 53.1589 203.7810 0001768 85.2954 274.8269 15.76761960 5942
UTC large
Height (km)
Speed (km/s)
/
Latitude / Longitude
Inclination (degrees)
Orbital Period (minutes)
Azimuth
Elevation
Range (km)
Doppler Factor

Next 0 passes for location: London (51.5072 / 0.1276)

Sorry there are no passes over London.